Weather in Mymensingh

Bangladesh     24°44′47″N   90°24′26″E
temp.,
°C
wind,
m/s
gust,
m/s
humid.,
%
clouds,
%
prec.,
mm/h
press.,
hPa
HPBL,
m
18 april, sun
sun1800:00+23e37760 2.3 1011186
03:00+21ese36795 1.6 1010170
06:00+21e48799 2.4 1011235
09:00+28ese45534 0.0 1013718
12:00+34ese25380 0.0 10101871
15:00+37w362588 0.0 10042892
18:00+27nne246144 2.1 1008248
21:00+24ese611743 0.1 1008341
19 april, mon
mon1900:00+23e47801 0.3 1007205
03:00+23ese59848 0.4 1006232
06:00+22e59885 0.5 1008302
09:00+29se556577 0.1 10091143
12:00+36se15340 0.1 10062820
15:00+39w49155 0.0 10024274
18:00+35nnw12210 0.0 100127
21:00+29se711620 0.0 1005397
20 april, tue
tue2000:00+24e610798 0.0 1006393
03:00+24e578360 0.0 1005278
06:00+24ese598573 0.0 1007346
09:00+28ese577298 0.1 1009858
12:00+36e46390 0.1 10062135
15:00+41nw27167 0.0 10024378
18:00+31se1015500 0.1 1003749
21:00+27ese510630 0.1 1007444
21 april, wed
wed2100:00+24e59680 0.8 1007288
03:00+24ese4107917 0.0 1006295
06:00+24e478616 0.0 1008203
09:00+31se456287 0.1 10101320
12:00+36e364016 0.2 10082016
15:00+40ne262530 0.0 10033452
18:00+36e583539 0.0 1003395
21:00+28sse35641 1.4 1007182
22 april, thu
thu2200:00+27ese236587 1.4 100780
03:00+26sse487480 0.1 1006254
06:00+26ese47865 0.1 1008326
09:00+31sse565950 0.0 10091352
12:00+38s563572 0.0 10062589
15:00+41ssw572557 0.0 10024383
18:00+27se91759100 0.6 1004701
21:00+24sse71385100 5.1 1007430